Location: Benalto
(52.3088°N, 114.2787°W)
Time: 03:39:02
(UTC+00:00)

ISS - Visible Passes

Search period start: 07 December 2021 00:00
Search period end: 17 December 2021 00:00
Orbit: 417 x 422 km, 51.6° (Epoch: 06 December)

Date Brightness Start Highest point End Pass type
(mag) Time Alt. Az. Time Alt. Az. Time Alt. Az.
07 Dec -1.8 00:45:11 10° W 00:48:12 30° SSW 00:51:14 10° SE visible
08 Dec -0.5 01:36:00 10° WSW 01:37:03 11° SW 01:38:07 10° SSW visible
09 Dec -0.7 00:47:42 10° WSW 00:49:53 16° SW 00:52:03 10° S visible
12 Dec 0.0 00:03:12 10° WSW 00:04:12 11° SW 00:05:13 10° SSW visible
